Find Starlink 32957

NORAD ID: 63124 Int'l Des: 2025-039 Owner: SPXS Country: US Constellation: starlink operational
LEOCIRCULAR

現在のビュー

3D地球を読み込み中...

About Starlink 32957

Starlink 32957 (NORAD 63124) is a starlink constellation satellite (v2 mini) launched Feb 27, 2025 by SPXS of US. It operates in LEO, CIRCULAR orbit with a mass of 730.00 kg.

Starlink 32957について

説明を読み込み中...

次回通過

Passes for default location (London). Set your location on the main map for personalized predictions.

高度履歴

Loading altitude history...

軌道要素

1 63124U 25039W 26170.03016299 .00017649 00000-0 64905-3 0 9995
2 63124 43.0011 160.6279 0001470 273.7909 86.2775 15.27593916 73561
Epoch: Jun 19, 2026 • Age: 12 hours

現在のステータス

高度 493.1 km
速度 7.62 km/s
衛星直下点 -37.52°S, 66.49°W
打ち上げ日 Feb 27, 2025
運用期間 1.3 years
タイプ internet

技術仕様

分類 Payload
質量 730.00 kg
乾燥質量 700.00 kg
総質量 730.00 kg
長さ 0.30 m
直径 4.10 m
スパン 29.00 m
形状 Box + pan
製造者 SPXS
バスタイプ Starlink V2M
フェーズステータス In Orbit
所有者/国 SPXS/US

Most Searched